STARLINK-11147 [DTC] (60301 NORAD) Tracking and Keplerian Element Data

This shows tracking and keplerian element data for the satellite.

Feedback or suggestion? Click here.




ElementValue
Catalog60301
NameSTARLINK-11147 [DTC]
Epoch Orbit1317
Epoch Day286.81976988
Epoch Year2024
RAAN155.1097
Inclination53.1563
Eccentricity5.57E-05
Argument of Perigee124.1375
Mean Anonmoly235.9698
Mean Motion15.75027853
Decay Rate0.00036195
L11 60301U 24133A 24286.81976988 .00036195 00000+0 24147-3 0 9995
L22 60301 53.1563 155.1097 0000557 124.1375 235.9698 15.75027853 13170



Live tracking and technical data element details for STARLINK-11147 [DTC] (NORAD 60301). STARLINK-11147 [DTC] can be tracked NOW for your location showing map with azimuth and elevation plus other details from your city location.







IsCatalogInMostPopularTable: catalog: 60301, numindb: 13
Update: records affected: 1



GetName: 60301 STARLINK-11147 [DTC]

Hit Count: updated at: Thu, 23 Jan 2025 14:00:11 GMT